0602902321,1994,01,04,14,0.2
0602902321,1994,01,04,15,0
0602902321,1994,01,04,16,0
0602902321,1994,01,04,17,0
0602902321,1994,01,04,19,0
0602902321,1994,01,04,20,0.2
0602902321,1994,01,04,21,0
0602902321,1994,01,04,22,0.1
0602902321,1994,01,04,23,0
0602902321,1994,01,05,00,0
0602902321,1994,01,05,01,0
0602902321,1994,01,05,02,0
0602902321,1994,01,05,03,0
0602902321,1994,01,05,04,0
0602902321,1994,01,05,05,0
0602902321,1994,01,05,06,0
0602902321,1994,01,05,07,0
0602902321,1994,01,05,08,0
0602902321,1994,01,05,09,0
0602902321,1994,01,05,10,0
0602902321,1994,01,05,11,0
0602902321,1994,01,05,12,0
0602902321,1994,01,05,13,0
0602902321,1994,01,05,14,0
0602902321,1994,01,05,15,0
0602902321,1994,01,05,16,0.1
0602902321,1994,01,05,17,0
0602902321,1994,01,05,19,0
0602902321,1994,01,05,20,0.2
0602902321,1994,01,05,21,0.1
0602902321,1994,01,05,22,0
0602902321,1994,01,05,23,0
0602902321,1994,01,06,00,0
0602902321,1994,01,06,01,0
0602902321,1994,01,06,02,0
0602902321,1994,01,06,03,0
0602902321,1994,01,06,04,0
0602902321,1994,01,06,05,0
0602902321,1994,01,06,06,0
0602902321,1994,01,06,07,3
0602902321,1994,01,11,14,2.6
0602902321,1994,01,11,15,2.4
0602902321,1994,01,11,16,2
0602902321,1994,01,11,17,0.7
0602902321,1994,01,11,19,0.3
0602902321,1994,01,11,20,0.6
0602902321,1994,01,11,21,0
0602902321,1994,01,11,22,0
0602902321,1994,01,11,23,0
0602902321,1994,01,12,00,0
0602902321,1994,01,12,01,0
0602902321,1994,01,12,02,0
0602902321,1994,01,12,03,0
0602902321,1994,01,12,04,0
0602902321,1994,01,12,05,0
0602902321,1994,01,12,06,0
0602902321,1994,01,12,07,0
0602902321,1994,01,12,08,0
0602902321,1994,01,12,13,3.2
0602902321,1994,01,12,14,2.9
0602902321,1994,01,12,15,2.8
0602902321,1994,01,12,16,1.6
0602902321,1994,01,12,17,0.2
0602902321,1994,01,12,18,0.6
0602902321,1994,01,12,19,1.4
0602902321,1994,01,12,20,1.2
0602902321,1994,01,12,21,0.1
0602902321,1994,01,12,22,0.3
0602902321,1994,01,12,23,0.3
0602902321,1994,01,13,00,0
0602902321,1994,01,13,01,0.1
0602902321,1994,01,13,02,0
0602902321,1994,01,13,03,0
0602902321,1994,01,13,04,0
0602902321,1994,01,13,05,0
0602902321,1994,01,13,06,0
0602902321,1994,01,13,07,0.2
0602902321,1994,01,13,11,0.6
0602902321,1994,01,13,12,1.2
0602902321,1994,01,13,14,1.7
0602902321,1994,01,13,15,1.6
0602902321,1994,01,13,16,1.3
0602902321,1994,01,13,17,0.1
0602902321,1994,01,13,19,0.8
0602902321,1994,01,13,20,0.8
0602902321,1994,01,13,21,0.3
0602902321,1994,01,13,22,0
0602902321,1994,01,13,23,0
0602902321,1994,01,14,00,0
0602902321,1994,01,14,01,0
0602902321,1994,01,14,02,0
0602902321,1994,01,14,03,0
0602902321,1994,01,14,04,0
0602902321,1994,01,14,05,0
0602902321,1994,01,14,06,0
0602902321,1994,01,14,07,0
0602902321,1994,01,14,08,0
0602902321,1994,01,14,09,0.3
0602902321,1994,01,14,10,0.7
0602902321,1994,01,14,11,0.5
0602902321,1994,01,14,12,0.6
0602902321,1994,01,14,13,0.6
0602902321,1994,01,14,14,0.9
0602902321,1994,01,14,15,0.3
0602902321,1994,01,14,16,0
0602902321,1994,01,14,17,0
0602902321,1994,01,14,19,0
0602902321,1994,01,14,20,0
0602902321,1994,01,14,21,0
0602902321,1994,01,14,22,0.2
0602902321,1994,01,14,23,0.1
0602902321,1994,01,15,00,0
0602902321,1994,01,15,01,0
0602902321,1994,01,15,02,0
0602902321,1994,01,15,09,0
0602902321,1994,01,15,12,2.4
0602902321,1994,01,15,13,4
0602902321,1994,01,15,14,4.5
0602902321,1994,01,15,15,4.8
0602902321,1994,01,15,16,3.2
0602902321,1994,01,15,17,1.4
0602902321,1994,01,15,19,1.6
0602902321,1994,01,15,20,0.3
0602902321,1994,01,15,21,0.6
0602902321,1994,01,15,22,1.7
0602902321,1994,01,15,23,2.1
0602902321,1994,01,16,00,2
0602902321,1994,01,16,01,1.7
0602902321,1994,01,16,02,1.3
0602902321,1994,01,16,03,0.7
0602902321,1994,01,16,04,0.8
0602902321,1994,01,16,05,0.8
0602902321,1994,01,16,06,0.8
0602902321,1994,01,16,07,0.6
0602902321,1994,01,16,08,1.4
0602902321,1994,01,16,09,2.8
0602902321,1994,01,16,10,3.6
0602902321,1994,01,16,11,4.5
0602902321,1994,01,16,12,4.5
0602902321,1994,01,16,13,5.5
0602902321,1994,01,16,14,6.1
0602902321,1994,01,16,15,6
0602902321,1994,01,16,16,5.3
0602902321,1994,01,16,17,2.6
0602902321,1994,01,16,19,2.8
0602902321,1994,01,16,20,2.8
0602902321,1994,01,16,21,1.7
0602902321,1994,01,16,22,2
0602902321,1994,01,16,23,2.3
0602902321,1994,01,17,00,2.4
0602902321,1994,01,17,01,1.7
0602902321,1994,01,17,02,1.8
0602902321,1994,01,17,03,1
0602902321,1994,01,17,04,1.1
0602902321,1994,01,17,05,0.7
0602902321,1994,01,17,06,0.6
0602902321,1994,01,17,07,0.3
0602902321,1994,01,17,08,0.7
0602902321,1994,01,17,11,2.6
0602902321,1994,01,17,12,4
0602902321,1994,01,17,13,5.3
0602902321,1994,01,17,14,5.7
0602902321,1994,01,17,15,5.7
0602902321,1994,01,17,16,4.2
0602902321,1994,01,17,17,1.7
0602902321,1994,01,17,19,1.2
0602902321,1994,01,17,20,1.1
0602902321,1994,01,17,21,1.2
0602902321,1994,01,17,22,1.7
0602902321,1994,01,17,23,2
0602902321,1994,01,18,00,2.1
0602902321,1994,01,18,01,1.9
0602902321,1994,01,18,02,1.4
0602902321,1994,01,18,03,0.7
0602902321,1994,01,18,04,0.3
0602902321,1994,01,18,05,0.6
0602902321,1994,01,18,06,0.2
0602902321,1994,01,18,07,0.1
0602902321,1994,01,18,08,0.8
0602902321,1994,01,18,09,1.8
0602902321,1994,01,18,10,4.1
0602902321,1994,01,18,11,5
0602902321,1994,01,18,12,4.9
0602902321,1994,01,18,13,5.3
0602902321,1994,01,18,14,5.7
0602902321,1994,01,18,15,5.6
0602902321,1994,01,18,16,4.6
0602902321,1994,01,18,17,1.8
0602902321,1994,01,18,19,1.7
0602902321,1994,01,18,20,2
0602902321,1994,01,18,21,1.6
0602902321,1994,01,18,22,1.6
0602902321,1994,01,18,23,2
0602902321,1994,01,19,00,2.4
0602902321,1994,01,19,01,1.1
0602902321,1994,01,19,02,1.8
0602902321,1994,01,19,03,1.9
0602902321,1994,01,19,04,0.9
0602902321,1994,01,19,05,1
0602902321,1994,01,19,06,0.6
0602902321,1994,01,19,07,0.2
0602902321,1994,01,19,08,0.8
0602902321,1994,01,19,09,3.6
0602902321,1994,01,19,10,4.9
0602902321,1994,01,19,11,5.7
0602902321,1994,01,19,13,3.4
0602902321,1994,01,19,14,5.1
0602902321,1994,01,19,15,5.4
0602902321,1994,01,19,16,4
0602902321,1994,01,19,17,1.7
0602902321,1994,01,19,19,2.7
0602902321,1994,01,19,20,1.5
0602902321,1994,01,19,21,1
0602902321,1994,01,19,22,1.8
0602902321,1994,01,19,23,1.9
0602902321,1994,01,20,00,2.3
0602902321,1994,01,20,01,2.4
0602902321,1994,01,20,02,2.1
0602902321,1994,01,20,03,1.3
0602902321,1994,01,20,04,0.8
0602902321,1994,01,20,05,0.2
0602902321,1994,01,20,06,0
0602902321,1994,01,20,07,0.1
0602902321,1994,01,20,08,0.2
0602902321,1994,01,20,09,0.6
0602902321,1994,01,20,10,1.4
0602902321,1994,01,20,11,2.2
0602902321,1994,01,20,12,2
0602902321,1994,01,20,13,1.8
0602902321,1994,01,20,14,3.3
0602902321,1994,01,20,15,3.9
0602902321,1994,01,20,16,2.6
0602902321,1994,01,20,17,0.2
0602902321,1994,01,20,19,0
0602902321,1994,01,20,20,1
0602902321,1994,01,20,21,0.7
0602902321,1994,01,20,22,0.8
0602902321,1994,01,20,23,1.6
0602902321,1994,01,21,00,1.5
0602902321,1994,01,21,01,1.2
0602902321,1994,01,21,02,1.4
0602902321,1994,01,21,03,1
0602902321,1994,01,21,04,1.4
0602902321,1994,01,21,05,0.9
0602902321,1994,01,21,06,0.2
0602902321,1994,01,21,07,0.1
0602902321,1994,01,21,08,0
0602902321,1994,01,21,09,1.3
0602902321,1994,01,21,10,1
0602902321,1994,01,21,11,0.8
0602902321,1994,01,21,12,1.1
0602902321,1994,01,21,13,1.2
0602902321,1994,01,21,14,0.4
0602902321,1994,01,21,15,0.3
0602902321,1994,01,21,16,0.2
0602902321,1994,01,21,17,0
0602902321,1994,01,21,19,0.7
0602902321,1994,01,21,20,1
0602902321,1994,01,21,21,1.2
0602902321,1994,01,21,22,1.2
0602902321,1994,01,21,23,1
0602902321,1994,01,22,00,1.3
0602902321,1994,01,22,01,2.1
0602902321,1994,01,22,02,1.9
0602902321,1994,01,22,03,1.3
0602902321,1994,01,22,04,1
0602902321,1994,01,22,05,0.9
0602902321,1994,01,22,06,0
0602902321,1994,01,22,07,0
0602902321,1994,01,22,08,0.2
0602902321,1994,01,22,09,0.7
0602902321,1994,01,22,10,0.9
0602902321,1994,01,22,11,1.1
0602902321,1994,01,22,12,2.1
0602902321,1994,01,22,13,2.5
0602902321,1994,01,22,14,2.6
0602902321,1994,01,22,15,2.5
0602902321,1994,01,22,16,2.3
0602902321,1994,01,22,17,0.2
0602902321,1994,01,22,19,1.1
0602902321,1994,01,22,20,0.5
0602902321,1994,01,22,21,0.4
0602902321,1994,01,22,22,0.2
0602902321,1994,01,22,23,0.3
0602902321,1994,01,23,00,0.4
0602902321,1994,01,23,01,0.1
0602902321,1994,01,23,02,0.2
0602902321,1994,01,23,03,0.4
0602902321,1994,01,23,04,0.6
0602902321,1994,01,23,05,0.2
0602902321,1994,01,23,06,1
0602902321,1994,01,23,07,0.8
0602902321,1994,01,23,08,1.2
0602902321,1994,01,23,09,1.3
0602902321,1994,01,23,10,1.3
0602902321,1994,01,23,11,1.7
0602902321,1994,01,23,12,2
0602902321,1994,01,23,13,1.5
0602902321,1994,01,23,14,2.4
0602902321,1994,01,23,15,2.7
0602902321,1994,01,23,16,2.5
0602902321,1994,01,23,17,2.2
0602902321,1994,01,23,19,1.4
0602902321,1994,01,23,20,0.7
0602902321,1994,01,23,21,0.2
0602902321,1994,01,23,22,0.1
0602902321,1994,01,23,23,0.2
0602902321,1994,01,24,00,0.6
0602902321,1994,01,24,01,0
0602902321,1994,01,24,02,0.5
0602902321,1994,01,24,03,0.7
0602902321,1994,01,24,04,0.5
0602902321,1994,01,24,05,0
0602902321,1994,01,24,06,0.3
0602902321,1994,01,24,07,0.2
0602902321,1994,01,24,08,0.1
0602902321,1994,01,24,09,0.8
0602902321,1994,01,24,10,1.6
0602902321,1994,01,24,11,2.3
0602902321,1994,01,24,12,2.3
0602902321,1994,01,24,13,1.7
0602902321,1994,01,24,14,1.7
0602902321,1994,01,24,15,2.6
0602902321,1994,01,24,16,2.7
0602902321,1994,01,24,17,2.6
0602902321,1994,01,24,19,2.5
0602902321,1994,01,24,20,1.9
0602902321,1994,01,24,21,2.4
0602902321,1994,01,24,22,2.3
0602902321,1994,01,24,23,2
0602902321,1994,01,25,00,1.8
0602902321,1994,01,25,01,1.8
0602902321,1994,01,25,02,1.5
0602902321,1994,01,25,03,1.4
0602902321,1994,01,25,04,0.4
0602902321,1994,01,25,05,0.2
0602902321,1994,01,25,06,0.1
0602902321,1994,01,25,07,0
0602902321,1994,01,25,08,0.6
0602902321,1994,01,25,09,1.5
0602902321,1994,01,25,10,2.3
0602902321,1994,01,25,11,2.4
0602902321,1994,01,25,15,2.2
0602902321,1994,01,25,16,1.9
0602902321,1994,01,25,17,1.3
0602902321,1994,01,25,19,0.2
0602902321,1994,01,25,20,0.4
0602902321,1994,01,25,21,0.6
0602902321,1994,01,25,22,0.5
0602902321,1994,01,25,23,0.6
0602902321,1994,01,26,00,0.9
0602902321,1994,01,26,01,1
0602902321,1994,01,26,02,0.6
0602902321,1994,01,26,03,0.9
0602902321,1994,01,26,04,0.7
0602902321,1994,01,26,05,0.6
0602902321,1994,01,26,06,0.8
0602902321,1994,01,26,07,0.2
0602902321,1994,01,26,08,0.1
0602902321,1994,01,26,09,1
0602902321,1994,01,26,10,1.5
0602902321,1994,01,26,11,1.9
0602902321,1994,01,26,12,2.4
0602902321,1994,01,26,13,2.8
0602902321,1994,01,26,14,2.5
0602902321,1994,01,26,15,2.5
0602902321,1994,01,26,16,2.6
0602902321,1994,01,26,17,1.9
0602902321,1994,01,26,19,1.6
0602902321,1994,01,26,20,1.5
0602902321,1994,01,26,21,1.7
0602902321,1994,01,26,22,1.2
0602902321,1994,01,26,23,0.3
0602902321,1994,01,27,00,0.3
0602902321,1994,01,27,01,0
0602902321,1994,01,27,02,0
0602902321,1994,01,27,03,0
0602902321,1994,01,27,04,0
0602902321,1994,01,27,05,0
0602902321,1994,01,27,06,0
0602902321,1994,01,27,07,0
0602902321,1994,01,27,08,0.4
0602902321,1994,01,27,09,0.9
0602902321,1994,01,27,10,1.6
0602902321,1994,01,27,11,1.8
0602902321,1994,01,27,12,2
0602902321,1994,01,27,13,2.5
0602902321,1994,01,27,14,2.3
0602902321,1994,01,27,15,2.4
0602902321,1994,01,27,16,2.5
0602902321,1994,01,27,17,1.6
0602902321,1994,01,27,19,0
0602902321,1994,01,27,20,0.1
0602902321,1994,01,27,21,0.3
0602902321,1994,01,27,22,0
0602902321,1994,01,27,23,0.1
0602902321,1994,01,28,00,0
0602902321,1994,01,28,01,0.1
0602902321,1994,01,28,02,0.7
0602902321,1994,01,28,03,0.4
0602902321,1994,01,28,04,0.3
0602902321,1994,01,28,05,0
0602902321,1994,01,28,06,0
0602902321,1994,01,28,07,0
0602902321,1994,01,28,08,0.2
0602902321,1994,01,28,09,0.6
0602902321,1994,01,28,10,1.3
0602902321,1994,01,28,11,1.9
0602902321,1994,01,28,12,2.6
0602902321,1994,01,28,13,2.6
0602902321,1994,01,28,14,2.6
0602902321,1994,01,28,15,2.7
0602902321,1994,01,28,16,2.9
0602902321,1994,01,28,17,2.7
0602902321,1994,01,28,19,2
0602902321,1994,01,28,20,1.8
0602902321,1994,01,28,21,1.4
0602902321,1994,01,28,22,0.4
0602902321,1994,01,28,23,0
0602902321,1994,01,29,00,0.3
0602902321,1994,01,29,01,0.3
0602902321,1994,01,29,02,0
0602902321,1994,01,29,03,0.1
0602902321,1994,01,29,04,0.1
0602902321,1994,01,29,05,0
0602902321,1994,01,29,06,0
0602902321,1994,01,29,07,0
0602902321,1994,01,29,08,0
0602902321,1994,01,29,09,0.4
0602902321,1994,01,29,10,1
0602902321,1994,01,29,11,1.7
0602902321,1994,01,29,12,2.7
0602902321,1994,01,29,13,3
0602902321,1994,01,29,14,2.9
0602902321,1994,01,29,15,3.5
0602902321,1994,01,29,16,2.9
0602902321,1994,01,29,17,1.4
0602902321,1994,01,30,12,2.8
0602902321,1994,01,30,13,3.6
0602902321,1994,01,30,14,3.8
0602902321,1994,01,30,15,3.9
0602902321,1994,01,30,16,3.5
0602902321,1994,01,30,17,2.6
0602902321,1994,01,30,19,2.2
0602902321,1994,01,30,20,2.4
0602902321,1994,01,30,21,2.3
0602902321,1994,01,30,22,1.9
0602902321,1994,01,30,23,1.1
0602902321,1994,01,31,00,0.8
0602902321,1994,01,31,01,0.6
0602902321,1994,01,31,02,0
0602902321,1994,01,31,03,0
0602902321,1994,01,31,04,0
0602902321,1994,01,31,05,0
0602902321,1994,01,31,06,1.2
0602902321,1994,01,31,07,2.3
0602902321,1994,01,31,08,2.8
0602902321,1994,01,31,09,2.9
0602902321,1994,01,31,10,3
0602902321,1994,01,31,11,3
0602902321,1994,01,31,12,3.1
0602902321,1994,01,31,13,3.1
0602902321,1994,01,31,14,3
0602902321,1994,01,31,15,3
0602902321,1994,01,31,16,2.9
0602902321,1994,01,31,17,2.9
0602902321,1994,01,31,19,1.9
0602902321,1994,01,31,20,1.8
0602902321,1994,01,31,21,0.9
0602902321,1994,01,31,22,2
0602902321,1994,01,31,23,2
0602902321,1994,02,01,00,2.9
0602902321,1994,02,01,01,2.9
0602902321,1994,02,01,02,1.1
0602902321,1994,02,01,03,1.8
0602902321,1994,02,01,04,1
0602902321,1994,02,01,05,1.3
0602902321,1994,02,01,06,0.4
0602902321,1994,02,01,07,1.8
0602902321,1994,02,01,08,1.1
0602902321,1994,02,01,09,0.6
0602902321,1994,02,01,10,1.5
0602902321,1994,02,01,11,2.2
0602902321,1994,02,01,12,2.7
0602902321,1994,02,01,13,2.9
0602902321,1994,02,01,14,3
0602902321,1994,02,01,15,2.5
0602902321,1994,02,01,16,3.1
0602902321,1994,02,01,17,2.7
0602902321,1994,02,01,19,0.9
0602902321,1994,02,01,20,0.1
0602902321,1994,02,01,21,0
0602902321,1994,02,01,22,0
0602902321,1994,02,01,23,0
0602902321,1994,02,02,00,0
0602902321,1994,02,02,01,0
0602902321,1994,02,02,02,0.2
0602902321,1994,02,02,03,0
0602902321,1994,02,02,04,0
0602902321,1994,02,02,05,0
0602902321,1994,02,02,06,0
0602902321,1994,02,02,07,0
0602902321,1994,02,02,08,0
0602902321,1994,02,02,09,0
0602902321,1994,02,02,10,0.2
0602902321,1994,02,02,11,0.2
0602902321,1994,02,02,12,0.2
0602902321,1994,02,02,13,0.5
0602902321,1994,02,02,14,0.6
0602902321,1994,02,02,15,1.2
0602902321,1994,02,02,16,0.4
0602902321,1994,02,02,17,0.1
0602902321,1994,02,02,19,0
0602902321,1994,02,02,20,0
0602902321,1994,02,02,21,0
0602902321,1994,02,02,22,0.2
0602902321,1994,02,02,23,0.4
0602902321,1994,02,03,00,0.5
0602902321,1994,02,03,01,0.2
0602902321,1994,02,03,02,0
0602902321,1994,02,03,03,0
0602902321,1994,02,03,04,0
0602902321,1994,02,03,05,0
0602902321,1994,02,03,06,0
0602902321,1994,02,03,07,0
0602902321,1994,02,03,08,0
0602902321,1994,02,03,09,0.3
0602902321,1994,02,03,10,0.8
0602902321,1994,02,03,11,1.4
0602902321,1994,02,03,12,1.4
0602902321,1994,02,03,13,0.6
0602902321,1994,02,03,14,0.3
0602902321,1994,02,03,15,0
0602902321,1994,02,03,16,0
0602902321,1994,02,03,17,0.3
0602902321,1994,02,03,19,0
0602902321,1994,02,03,20,0.6
0602902321,1994,02,03,21,1.8
0602902321,1994,02,03,22,1.8
0602902321,1994,02,03,23,0
0602902321,1994,02,04,00,0.3
0602902321,1994,02,04,01,0.9
0602902321,1994,02,04,02,0.7
0602902321,1994,02,04,03,0.1
0602902321,1994,02,04,04,0.6
0602902321,1994,02,04,05,0.3
0602902321,1994,02,04,06,0.3
0602902321,1994,02,04,07,0.2
0602902321,1994,02,04,08,0.2
0602902321,1994,02,04,09,1
0602902321,1994,02,04,10,0.8
0602902321,1994,02,04,11,1
0602902321,1994,02,04,12,1.8
0602902321,1994,02,04,13,2.3
0602902321,1994,02,04,14,2
0602902321,1994,02,04,15,2
0602902321,1994,02,04,16,2.2
0602902321,1994,02,04,17,1.8
0602902321,1994,02,04,19,0.7
0602902321,1994,02,04,20,0.8
0602902321,1994,02,04,21,0.6
0602902321,1994,02,04,22,0.2
0602902321,1994,02,04,23,0
0602902321,1994,02,05,00,0
0602902321,1994,02,05,01,0.2
0602902321,1994,02,05,02,0.8
0602902321,1994,02,05,03,0.3
0602902321,1994,02,05,04,0.7
0602902321,1994,02,05,05,0.1
0602902321,1994,02,05,06,0
0602902321,1994,02,05,07,0
0602902321,1994,02,05,08,0.4
0602902321,1994,02,05,09,1.1
0602902321,1994,02,05,10,1.2
0602902321,1994,02,05,11,2
0602902321,1994,02,05,12,2.8
0602902321,1994,02,05,13,3.3
0602902321,1994,02,05,14,3.5
0602902321,1994,02,05,15,3.2
0602902321,1994,02,05,16,2.4
0602902321,1994,02,05,17,2
0602902321,1994,02,05,19,1.3
0602902321,1994,02,05,20,1.3
0602902321,1994,02,05,21,1.2
0602902321,1994,02,05,22,1.5
0602902321,1994,02,05,23,2.2
0602902321,1994,02,06,00,1.9
0602902321,1994,02,06,01,2.3
0602902321,1994,02,06,02,1.3
0602902321,1994,02,06,03,1.2
0602902321,1994,02,06,04,1.5
0602902321,1994,02,06,05,1.2
0602902321,1994,02,06,06,0.8
0602902321,1994,02,06,07,1.1
0602902321,1994,02,06,08,1.3
0602902321,1994,02,06,09,1.7
0602902321,1994,02,06,10,2.5
0602902321,1994,02,06,11,3.4
0602902321,1994,02,06,12,3.7
0602902321,1994,02,06,13,3.7
0602902321,1994,02,06,14,3.8
0602902321,1994,02,06,15,3.8
0602902321,1994,02,06,16,3.2
0602902321,1994,02,06,17,3.1
0602902321,1994,02,06,19,2.3
0602902321,1994,02,06,20,2.8
0602902321,1994,02,06,21,2.7
0602902321,1994,02,06,22,2.5
0602902321,1994,02,06,23,3.2
0602902321,1994,02,07,00,2.7
0602902321,1994,02,07,01,2.9
0602902321,1994,02,07,02,2.9
0602902321,1994,02,07,03,2.6
0602902321,1994,02,07,04,2.6
0602902321,1994,02,07,05,3
0602902321,1994,02,07,06,2.5
0602902321,1994,02,07,07,2.4
0602902321,1994,02,07,08,2.2
0602902321,1994,02,07,09,2.4
0602902321,1994,02,07,10,2.5
0602902321,1994,02,07,11,2.9
0602902321,1994,02,07,12,3.1
0602902321,1994,02,07,13,3.3
0602902321,1994,02,07,14,3.1
0602902321,1994,02,07,15,2.6
0602902321,1994,02,07,16,2.2
0602902321,1994,02,07,17,1.4
0602902321,1994,02,07,19,1.6
0602902321,1994,02,07,20,0.7
0602902321,1994,02,07,21,0.5
0602902321,1994,02,07,22,1.5
0602902321,1994,02,07,23,1.7
0602902321,1994,02,08,00,2.1
0602902321,1994,02,08,01,1.9
0602902321,1994,02,08,02,1.9
0602902321,1994,02,08,03,1.4
0602902321,1994,02,08,04,0
0602902321,1994,02,08,05,0.6
0602902321,1994,02,08,06,0.6
0602902321,1994,02,08,07,0.3
0602902321,1994,02,08,08,1.3
0602902321,1994,02,08,09,2.4
0602902321,1994,02,08,10,2.7
0602902321,1994,02,08,11,2.8
0602902321,1994,02,08,12,3
0602902321,1994,02,08,13,2.9
0602902321,1994,02,08,14,3
0602902321,1994,02,08,15,2.8
0602902321,1994,02,08,16,2.5
0602902321,1994,02,08,17,2.3
0602902321,1994,02,08,19,1.4
0602902321,1994,02,08,20,1.4
0602902321,1994,02,08,21,1.4
0602902321,1994,02,08,22,0.8
0602902321,1994,02,08,23,0.9
0602902321,1994,02,09,00,0.9
0602902321,1994,02,09,01,0.3
0602902321,1994,02,09,02,0.1
0602902321,1994,02,09,03,0
0602902321,1994,02,09,04,0
0602902321,1994,02,09,05,0
0602902321,1994,02,09,06,0
0602902321,1994,02,09,07,0
0602902321,1994,02,09,08,0
0602902321,1994,02,09,09,0.2
0602902321,1994,02,09,10,1.5
0602902321,1994,02,09,11,2
0602902321,1994,02,09,12,2.3
0602902321,1994,02,09,13,2.8
0602902321,1994,02,09,14,3
0602902321,1994,02,09,15,3.1
0602902321,1994,02,09,16,3
0602902321,1994,02,09,17,2.2
0602902321,1994,02,09,19,1.7
0602902321,1994,02,09,20,1.7
0602902321,1994,02,09,21,0.5
0602902321,1994,02,09,22,0.4
0602902321,1994,02,09,23,0.5
0602902321,1994,02,10,00,0.5
0602902321,1994,02,10,01,0.4
0602902321,1994,02,10,02,0.6
0602902321,1994,02,10,03,0.9
0602902321,1994,02,10,04,0.3
0602902321,1994,02,10,05,0.1
0602902321,1994,02,10,06,0
0602902321,1994,02,10,07,0
0602902321,1994,02,10,08,0.4
0602902321,1994,02,10,09,0.6
0602902321,1994,02,10,10,1.7
0602902321,1994,02,10,11,2.7
0602902321,1994,02,10,12,3.6
0602902321,1994,02,10,13,4
0602902321,1994,02,10,14,3.6
0602902321,1994,02,10,15,3.7
0602902321,1994,02,10,16,3.5
0602902321,1994,02,10,17,2.7
0602902321,1994,02,10,19,1.9
0602902321,1994,02,10,20,2.2
0602902321,1994,02,10,21,2.1
0602902321,1994,02,10,22,2.2
0602902321,1994,02,10,23,2.2
0602902321,1994,02,11,00,2.4
0602902321,1994,02,11,01,2.5
0602902321,1994,02,11,02,2.1
0602902321,1994,02,11,03,1.9
0602902321,1994,02,11,04,1.5
0602902321,1994,02,11,05,1
0602902321,1994,02,11,06,0.7
0602902321,1994,02,11,07,0
0602902321,1994,02,11,08,0.7
0602902321,1994,02,11,09,1.6
0602902321,1994,02,11,10,2.4
0602902321,1994,02,11,11,2.3
0602902321,1994,02,11,12,2.6
0602902321,1994,02,11,13,2.9
0602902321,1994,02,11,14,2.9
0602902321,1994,02,11,15,2.8
0602902321,1994,02,11,16,2.5
0602902321,1994,02,11,17,2.2
0602902321,1994,02,11,19,0.7
0602902321,1994,02,11,20,0.3
0602902321,1994,02,11,21,0.1
0602902321,1994,02,11,22,0.1
0602902321,1994,02,11,23,0.1
0602902321,1994,02,12,00,0.9
0602902321,1994,02,12,01,0.7
0602902321,1994,02,12,02,0.6
0602902321,1994,02,12,03,0.3
0602902321,1994,02,12,04,0.4
0602902321,1994,02,12,05,0.4
0602902321,1994,02,12,06,0.6
0602902321,1994,02,12,07,0.7
0602902321,1994,02,12,08,1.1
0602902321,1994,02,12,09,1.6
0602902321,1994,02,12,10,2
0602902321,1994,02,12,11,2.4
0602902321,1994,02,12,12,2.7
0602902321,1994,02,12,13,2.6
0602902321,1994,02,12,14,2.7
0602902321,1994,02,12,15,3
0602902321,1994,02,12,16,3.2
0602902321,1994,02,12,17,3
0602902321,1994,02,12,19,1.8
0602902321,1994,02,12,20,2.2
0602902321,1994,02,12,21,1.8
0602902321,1994,02,12,22,1.2
0602902321,1994,02,12,23,1
0602902321,1994,02,13,00,0.9
0602902321,1994,02,13,01,0
0602902321,1994,02,13,02,0.4
0602902321,1994,02,13,03,1.6
0602902321,1994,02,13,04,1.1
0602902321,1994,02,13,05,1.3
0602902321,1994,02,13,06,0.7
0602902321,1994,02,13,07,0.7
0602902321,1994,02,13,08,0.3
0602902321,1994,02,13,09,0.5
0602902321,1994,02,13,10,1.1
0602902321,1994,02,13,11,1.4
0602902321,1994,02,13,12,1.7
0602902321,1994,02,13,13,2.3
0602902321,1994,02,13,14,2.6
0602902321,1994,02,13,15,3.2
0602902321,1994,02,13,16,3.1
0602902321,1994,02,13,17,3.1
0602902321,1994,02,13,19,2.1
0602902321,1994,02,13,20,1.4
0602902321,1994,02,13,21,1.3
0602902321,1994,02,13,22,1.2
0602902321,1994,02,13,23,0.7
0602902321,1994,02,14,00,1.2
0602902321,1994,02,14,01,1.1
0602902321,1994,02,14,02,0.6
0602902321,1994,02,14,03,0.9
0602902321,1994,02,14,04,0.2
0602902321,1994,02,14,05,0.7
0602902321,1994,02,14,06,0
0602902321,1994,02,14,07,0
0602902321,1994,02,14,08,0
0602902321,1994,02,14,09,0.6
0602902321,1994,02,14,10,1.1
0602902321,1994,02,14,11,2.2
0602902321,1994,02,14,12,2.4
0602902321,1994,02,14,13,2.5
0602902321,1994,02,14,14,2.7
0602902321,1994,02,14,15,2.9
0602902321,1994,02,14,16,3
0602902321,1994,02,14,17,2.3
0602902321,1994,02,14,19,1.9
0602902321,1994,02,14,20,1.2
0602902321,1994,02,14,21,0.7
0602902321,1994,02,14,22,0.5
0602902321,1994,02,14,23,0.4
0602902321,1994,02,15,00,0.6
0602902321,1994,02,15,01,0.1
0602902321,1994,02,15,02,0.7
0602902321,1994,02,15,03,0.7
0602902321,1994,02,15,04,0.4
0602902321,1994,02,15,05,0.5
0602902321,1994,02,15,06,0.2
0602902321,1994,02,15,07,0
0602902321,1994,02,15,08,0.2
0602902321,1994,02,15,09,1.5
0602902321,1994,02,15,10,0.8
0602902321,1994,02,15,11,2.1
0602902321,1994,02,15,12,3.1
0602902321,1994,02,15,13,3.3
0602902321,1994,02,15,14,3
0602902321,1994,02,15,15,2.8
0602902321,1994,02,15,16,1.8
0602902321,1994,02,15,17,0.4
0602902321,1994,02,15,20,0.1
0602902321,1994,02,15,21,0